Flag for Germany Weather past 2 weeks in Marburg, Hesse, Germany

Now
62 °F

Overcast.


Feels Like: 62 °F
Forecast: 64 / 75 °F
Wind: 1 mph from East

Location: Giessen

Current Time: Jul 28, 2014 at 7:24:06 AM

Latest Report: Jul 28, 2014 at 7:00 AM


Visibility: N/A

Pressure: 29.92 "Hg

Humidity: 93%

Dew point: 60 °F

Location of MarburgLocation

Historic Weather in Marburg — Graph

°F

Marburg temperature yesterday

Maximum temperature yesterday: 81 °F (at 4:00 PM)
Minimum temperature yesterday: 59 °F (at 7:00 AM)
Average temperature yesterday: 71 °F

Past Weeks' High & Low Weather Summary

 TemperatureHumidityPressure
High89 °F (Jul 19, 6:00 PM)98% (Jul 14, 6:00 AM)30.20 "Hg (Jul 14, 6:00 AM)
Low55 °F (Jul 17, 6:00 AM)31% (Jul 18, 7:00 PM)29.74 "Hg (Jul 13, 7:00 PM)
Average70 °F72%29.96 "Hg
* Reported Jul 13 6:00 AM — Jul 28 6:00 AM, Marburg, Weather by CustomWeather, © 2014

Note: Actual official high and low records may vary slightly from our data, if they occured in-between our weather recording intervals... More about our weather records

Advertising

Marburg weather history for previous 24 hours

 ConditionsComfort  
Time TempWeatherWind HumidityBarometerVisibility
6:00 AM
Jul 28
60 °FOvercast.1 mph94%29.92 "HgN/A
5:00 AM61 °FPassing clouds.1 mph93%29.93 "HgN/A
4:00 AM62 °FClear.1 mph90%29.94 "HgN/A
3:00 AM63 °FPassing clouds.2 mph87%29.94 "HgN/A
2:00 AM64 °FOvercast.1 mph85%29.96 "HgN/A
1:00 AM65 °FPassing clouds.1 mph84%29.96 "HgN/A
12:00 AM69 °FPassing clouds.2 mph72%29.96 "HgN/A
11:00 PM
Jul 27
71 °FOvercast.5 mph68%29.96 "HgN/A
10:00 PM71 °FPassing clouds.2 mph67%29.96 "HgN/A
9:00 PM74 °FOvercast.3 mph62%29.94 "HgN/A
8:00 PM76 °FPartly sunny.2 mph56%29.94 "HgN/A
7:00 PM80 °FSunny.3 mph46%29.93 "HgN/A
6:00 PM81 °FSunny.3 mph43%29.92 "HgN/A
5:00 PM80 °FPassing clouds.5 mph47%29.93 "HgN/A
4:00 PM81 °FSunny.5 mph45%29.93 "HgN/A
3:00 PM80 °FFog.5 mph47%29.96 "HgN/A
2:00 PM79 °FPartly sunny.3 mph52%29.96 "HgN/A
1:00 PM79 °FSunny.3 mph53%29.96 "HgN/A
12:00 PM78 °FSunny.3 mph51%29.96 "HgN/A
11:00 AM73 °FSunny.2 mph69%29.97 "HgN/A
10:00 AM69 °FSunny.2 mph78%29.98 "HgN/A
9:00 AM65 °FOvercast.1 mph84%29.99 "HgN/A
8:00 AM61 °FOvercast.2 mph95%30.00 "HgN/A
7:00 AM59 °FOvercast.1 mph96%29.99 "HgN/A
Weather by CustomWeather, © 2014

See weather overviewHow to use our weather pages